DW9106 Madrid ES current weather conditions

sailwx.info

Wind from 062 at 0 knots gusting 4

Air temperature 21.7° C
Dewpoint 5.9° C

Last reported at 2014-Oct-22 11:45 UTC.
Time now 2014-Oct-22 12:21 UTC

Location: N 40°23' W 003°38'.
View on Google Maps.

See reports from other nearby stations

  
Tides and Currents Weather Stations Pressure Air Temp Water Temp Dewpoint Dewpoint Depression Visibility Wind Speed Wind Dir Waves Ship Positions
date/time (UTC)wind fromknots sea level pressurealtimeterstation pressurevisibilityair tempwater tempwave heightnotes
2014-Oct-22 11:45 062 0 gusting 4 21.7
2014-Oct-22 11:30 045 1 gusting 6 20.6
2014-Oct-22 11:15 033 1 gusting 5 20.0
2014-Oct-22 11:00 089 20.0
2014-Oct-22 10:45 030 2 gusting 6 19.4
2014-Oct-22 10:30 063 2 gusting 6 19.4
2014-Oct-22 10:15 044 3 gusting 6 18.9
2014-Oct-22 10:00 063 2 gusting 6 18.9
2014-Oct-22 09:45 052 3 gusting 7 18.9
2014-Oct-22 09:30 053 1 gusting 6 18.3
2014-Oct-22 09:15 045 1 gusting 3 18.9
2014-Oct-22 09:00 046 18.9
2014-Oct-22 08:45 024 18.3
2014-Oct-22 08:30 114 17.8
2014-Oct-22 08:15 098 17.8
2014-Oct-22 08:00 098 17.2
2014-Oct-22 07:44 049 16.7
2014-Oct-22 07:29 073 16.1
2014-Oct-22 07:14 025 15.6
2014-Oct-22 06:59 079 1 gusting 5 15.6
2014-Oct-22 06:44 060 15.6
2014-Oct-22 06:29 072 0 gusting 7 16.1
2014-Oct-22 06:14 033 15.6
2014-Oct-22 05:59 033 15.0
2014-Oct-22 05:44 033 15.0
2014-Oct-22 05:29 033 15.0
2014-Oct-22 05:14 032 15.6
2014-Oct-22 04:59 032 15.6
2014-Oct-22 04:44 034 16.1
2014-Oct-22 04:29 034 16.7
2014-Oct-22 04:14 023 16.1
2014-Oct-22 03:59 023 16.1
2014-Oct-22 03:44 028 16.1
2014-Oct-22 03:29 028 16.1
2014-Oct-22 03:14 028 16.7
2014-Oct-22 02:59 028 16.7
2014-Oct-22 02:44 247 16.7
2014-Oct-22 02:29 247 17.2
2014-Oct-22 02:14 243 17.2
2014-Oct-22 01:59 056 0 gusting 3 17.8
2014-Oct-22 01:44 081 18.9
2014-Oct-22 01:29 081 19.4
2014-Oct-22 01:14 078 19.4
2014-Oct-22 00:59 355 19.4
2014-Oct-22 00:44 132 20.0
2014-Oct-22 00:29 134 21.1
2014-Oct-22 00:13 225 0 gusting 6 21.1
2014-Oct-21 23:58 258 2 gusting 5 20.6
2014-Oct-21 23:43 244 21.1
2014-Oct-21 23:28 267 1 gusting 5 21.1
2014-Oct-21 23:13 263 1 gusting 4 20.6
2014-Oct-21 22:58 277 0 gusting 2 20.6
2014-Oct-21 22:43 017 21.1
2014-Oct-21 22:28 258 21.7
2014-Oct-21 22:13 238 0 gusting 4 21.7
2014-Oct-21 21:58 270 2 gusting 6 22.2
2014-Oct-21 21:43 280 0 gusting 6 21.7
2014-Oct-21 21:28 263 0 gusting 3 22.2
2014-Oct-21 21:13 239 1 gusting 6 22.2
2014-Oct-21 20:58 243 1 gusting 6 22.8
2014-Oct-21 20:28 273 0 gusting 7 23.3
2014-Oct-21 20:13 261 2 gusting 6 23.3
2014-Oct-21 19:58 281 2 gusting 6 23.3
2014-Oct-21 19:43 281 22.8
2014-Oct-21 19:28 287 22.8
2014-Oct-21 19:13 258 23.3
2014-Oct-21 18:58 273 23.3
2014-Oct-21 18:43 266 23.9
2014-Oct-21 18:28 266 24.4
2014-Oct-21 18:13 259 24.4
2014-Oct-21 17:58 258 25.0
2014-Oct-21 17:43 257 0 gusting 2 25.6
2014-Oct-21 17:28 262 25.6
2014-Oct-21 17:13 254 1 gusting 5 26.1
2014-Oct-21 16:58 193 0 gusting 5 27.2
2014-Oct-21 16:43 249 0 gusting 5 27.8
2014-Oct-21 16:28 211 0 gusting 6 27.8
2014-Oct-21 16:13 242 2 gusting 6 28.3
2014-Oct-21 15:58 207 28.3
2014-Oct-21 15:43 325 1 gusting 6 28.3
2014-Oct-21 15:28 258 2 gusting 6 28.9
2014-Oct-21 15:13 267 1 gusting 6 28.9
2014-Oct-21 14:58 205 2 gusting 6 28.9
2014-Oct-21 14:28 190 2 gusting 6 28.3
2014-Oct-21 14:13 283 1 gusting 5 28.9
2014-Oct-21 13:58 153 1 gusting 5 28.3
2014-Oct-21 13:28 246 2 gusting 6 27.8
2014-Oct-21 13:13 237 0 gusting 4 27.2
2014-Oct-21 12:58 254 0 gusting 6 27.2
2014-Oct-21 12:43 166 0 gusting 5 27.2
2014-Oct-21 12:28 130 26.7
2014-Oct-21 12:13 252 0 gusting 3 26.7
2014-Oct-21 11:58 243 1 gusting 3 26.1
2014-Oct-21 11:43 253 0 gusting 4 25.6
2014-Oct-21 11:28 059 25.0
2014-Oct-21 11:13 132 24.4
2014-Oct-21 10:58 186 24.4
2014-Oct-21 10:43 037 24.4
2014-Oct-21 10:27 151 0 gusting 2 23.9
2014-Oct-21 10:12 109 0 gusting 2 23.3
2014-Oct-21 09:57 090 22.8
2014-Oct-21 09:42 090 21.7
2014-Oct-21 09:27 081 20.0
2014-Oct-21 09:12 071 18.9
2014-Oct-21 08:57 035 1 gusting 2 18.3
2014-Oct-21 08:42 090 0 gusting 2 17.8
2014-Oct-21 08:27 089 17.2
2014-Oct-21 08:12 089 16.1
2014-Oct-21 07:57 069 2 gusting 4 15.6
2014-Oct-21 07:42 320 15.6
2014-Oct-21 07:27 316 15.0
2014-Oct-21 07:12 316 13.9
2014-Oct-21 06:57 316 13.3
2014-Oct-21 06:41 316 12.8
2014-Oct-21 06:26 316 12.8
2014-Oct-21 06:11 316 12.8
2014-Oct-21 05:56 315 13.3
2014-Oct-21 05:41 315 12.8
2014-Oct-21 05:26 316 12.8
2014-Oct-21 05:11 316 12.8
2014-Oct-21 04:56 316 12.8
2014-Oct-21 04:41 316 12.8
2014-Oct-21 04:26 315 12.8
2014-Oct-21 04:11 316 13.3
2014-Oct-21 03:56 316 13.3
2014-Oct-21 03:41 315 13.3
2014-Oct-21 03:26 316 13.3
2014-Oct-21 03:11 316 13.9
2014-Oct-21 02:56 316 13.9
2014-Oct-21 02:41 316 14.4
2014-Oct-21 02:26 315 15.0
2014-Oct-21 02:11 315 15.0
2014-Oct-21 01:56 315 15.6
2014-Oct-21 01:41 316 15.6
2014-Oct-21 01:26 315 16.1
2014-Oct-21 01:11 294 16.1
2014-Oct-21 00:56 294 16.7
2014-Oct-21 00:41 042 16.7
2014-Oct-21 00:26 042 16.7
2014-Oct-21 00:11 048 17.2
2014-Oct-20 23:56 048 0 gusting 3 17.2
2014-Oct-20 23:41 046 17.2
2014-Oct-20 23:26 046 17.2
2014-Oct-20 23:11 046 17.8
2014-Oct-20 22:56 046 17.8
2014-Oct-20 22:41 080 18.3
2014-Oct-20 22:26 046 18.3
2014-Oct-20 22:10 049 18.3
2014-Oct-20 21:55 049 18.3
2014-Oct-20 21:40 049 18.9
2014-Oct-20 21:25 050 18.9
2014-Oct-20 21:10 050 18.9
2014-Oct-20 20:55 050 19.4
2014-Oct-20 20:40 305 20.6
2014-Oct-20 20:25 309 20.6
2014-Oct-20 20:10 037 20.6
2014-Oct-20 19:55 038 20.6
2014-Oct-20 19:40 038 21.1
2014-Oct-20 19:25 051 20.6
2014-Oct-20 19:10 051 21.1
2014-Oct-20 18:55 051 21.7
2014-Oct-20 18:40 051 22.2
2014-Oct-20 18:25 051 22.2
2014-Oct-20 18:10 052 22.8
2014-Oct-20 17:55 051 23.3
2014-Oct-20 17:40 051 23.9
2014-Oct-20 17:25 051 25.0
2014-Oct-20 17:10 051 25.6
2014-Oct-20 16:55 051 26.1
2014-Oct-20 16:40 052 26.1
2014-Oct-20 16:25 051 26.7
2014-Oct-20 16:10 052 26.7
2014-Oct-20 15:55 051 27.2
2014-Oct-20 15:40 051 26.7
2014-Oct-20 15:25 051 26.1
2014-Oct-20 15:10 051 26.1
2014-Oct-20 14:55 051 0 gusting 2 26.1
2014-Oct-20 14:40 061 0 gusting 2 26.1
2014-Oct-20 14:25 059 2 gusting 5 26.1
2014-Oct-20 14:10 070 26.1
2014-Oct-20 13:55 072 1 gusting 4 25.6
2014-Oct-20 13:40 054 1 gusting 4 26.1
2014-Oct-20 13:25 048 2 gusting 6 25.0
2014-Oct-20 13:10 056 0 gusting 4 25.0
2014-Oct-20 12:55 056 0 gusting 4 25.0
2014-Oct-20 12:40 050 1 gusting 4 25.0
2014-Oct-20 12:25 090 2 gusting 4 24.4
2014-Oct-20 12:10 090 24.4